{"data":{"norad_id":60385,"intl_designator":"2024-140G","name":"QIANFAN-7","alt_names":[],"object_type":"PAYLOAD","status":"ACTIVE","operator":null,"country":"PRC","launch_date":"2024-08-06","launch_site_code":"TAISC","launch_vehicle":null,"mission":null,"orbit_class":"UNKNOWN","rcs_meters":null,"size_class":null,"mass_kg":null,"dimensions":null,"purposes":[],"wikipedia_slug":null,"has_3d_model":false,"image_url":null,"decayed_at":null,"tle_current":{"epoch":"2026-09-22T22:18:32.892768Z","epoch_age_seconds":73715,"freshness":"FRESH","line1":"1 60385U 24140G   26265.92954737  .00000141  00000+0  50882-4 0  9992","line2":"2 60385  88.9723 260.2661 0014918 175.7079 184.4247 14.27894208110943","mean_motion":14.27894208,"eccentricity":0.0014918,"inclination_deg":88.9723,"raan_deg":260.2661,"arg_perigee_deg":175.7079,"mean_anomaly_deg":184.4247,"bstar":5.0882e-5,"rev_number":11094,"period_min":100.8478073468,"perigee_km":788.07176419254,"apogee_km":809.48480864109,"semimajor_km":7176.9152864168,"source":"CELESTRAK","updated_at":"2026-09-23T09:00:20.567666Z"}}}